Гран При Бахрейна: первая тренировка

Гран При Бахрейна: первая тренировка

После побед в первых двух Гран При, вполне ожидаемо пилоты Mercedes заняли первые строчки протокола первой пятничной тренировки в Бахрейне.

Однако, учитывая, что бахрейнские квалификация и гонка пройдут в вечернее время, то в обед команды работали в основном над аэродинамическими настройками и давали возможность тест-пилотам проявить себя.

Так, Sauber посадил Гидо ван дер Гарде за руль машины Гутьерреса, в Caterham Робин Фряйнс был вместо Камуи Кобаяши, а в Williams Фелипе Наср заменил Валттери Боттаса.

В начале тренировки у Нико Росберга возникли проблемы с двигателем и он медлленно вернулся в боксы. У Кевина Магнуссена возникли проблемы с тормозами. Однако, после визита на пит-лейн оба пилота продолжили работу.

В середине сессии Фернандо Алонсо остановился на пит-лейн, после того, как механики обнаружили, что установили разные покрышки – три Medium и одну Soft.

Протокол возглавил Льюис Хэмильтон со временем 1:37.502. В одной секунде от него были Росберг, Алонсо и Хюлькенберг.

 
Дата04 апреля 2014Погодасолнечно
Киевское время14:00-15:30 ч.Температура24°C
Местное время14:00-15:30 ч.Влажность30%
Участники22Давление1.012 mBar
Рекорд в гонке1:30.252 мин.Асфальт35°C
Рекорд в квалификации1:30.139 мин.Ветер4,5 м/с, южный

Результаты 

Поз.ПилотКомандаВремяОтставаниеот пред.Круги
144L. HamiltonMercedes1:37.502  14
26N. RosbergMercedes1:37.733+0:00.231+0:00.23113
314F. AlonsoFerrari1:37.953+0:00.451+0:00.22017
427N. HülkenbergForce India1:38.122+0:00.620+0:00.16910
522J. ButtonMcLaren1:38.636+0:01.134+0:00.51416
67K. RäikkönenFerrari1:38.783+0:01.281+0:00.14712
720K. MagnussenMcLaren1:38.949+0:01.447+0:00.16615
826D. KwjatToro Rosso1:39.056+0:01.554+0:00.10724
911S. PerezForce India1:39.102+0:01.600+0:00.04621
101S. VettelRed Bull1:39.389+0:01.887+0:00.28716
1119F. MassaWilliams1:39.533+0:02.031+0:00.14411
1225J. VergneToro Rosso1:39.862+0:02.360+0:00.32926
1340F. NasrWilliams1:40.078+0:02.576+0:00.21614
143D. RicciardoRed Bull1:40.406+0:02.904+0:00.32819
1599A. SutilSauber1:40.652+0:03.150+0:00.24620
1613P. MaldonadoLotus1:40.793+0:03.291+0:00.14131
1717J. BianchiMarussia1:40.889+0:03.387+0:00.09620
1836G. van der GardeSauber1:40.913+0:03.411+0:00.02420
198R. GrosjeanLotus1:41.036+0:03.534+0:00.12324
204M. ChiltonMarussia1:41.794+0:04.292+0:00.75820
2146R. FrijnsCaterham1:42.417+0:04.915+0:00.62335
229M. EricssonCaterham1:42.711+0:05.209+0:00.29421
 107 % барьер1:44.327 
от пред. = от предыдущего


Написати коментар
Показати коментарі
Про цю статтю
Серія Формула 1
Тип статті Важливі новини

Червона зона: що актуально прямо зараз